PIA308 OPKC-OPIS

Flight info

Callsign PIA308
Flight time N/A
Altitude 37000
Route BADUL1D/25L BADUL J112 MOLTA J142 MATIN/N0448F360 J121 INDEK INDEK1A
Aircraft A320/M-SDE3FGHIRWY/LB1

Departure

Time N/A
Airport Jinnah International Airport (OPKC)

Arrival

Time 2026-04-26 23:01
Airport Islamabad International Airport (OPIS)
Time Latitude Longitude Altitude Speed Heading
2026-04-26 22:40 32.35962 73.63527 26766 ft 368 kts 319°
2026-04-26 22:40 32.37986 73.61704 26344 ft 365 kts 319°
2026-04-26 22:41 32.39992 73.59893 25951 ft 362 kts 319°
2026-04-26 22:41 32.41990 73.58088 25546 ft 358 kts 319°
2026-04-26 22:41 32.43961 73.56308 25136 ft 356 kts 319°
2026-04-26 22:41 32.45880 73.54576 24726 ft 354 kts 319°
2026-04-26 22:42 32.47852 73.52790 24287 ft 352 kts 319°
2026-04-26 22:42 32.49794 73.51030 23870 ft 351 kts 320°
2026-04-26 22:42 32.51730 73.49278 23438 ft 349 kts 320°
2026-04-26 22:42 32.53657 73.47537 22959 ft 349 kts 320°
2026-04-26 22:43 32.55584 73.45799 22512 ft 346 kts 320°
2026-04-26 22:43 32.57487 73.44076 22087 ft 343 kts 320°
2026-04-26 22:43 32.59379 73.42357 21665 ft 341 kts 319°
2026-04-26 22:43 32.61259 73.40645 21249 ft 340 kts 319°
2026-04-26 22:44 32.63128 73.38943 20833 ft 338 kts 319°
2026-04-26 22:44 32.64986 73.37250 20423 ft 336 kts 319°
2026-04-26 22:44 32.66830 73.35573 20023 ft 335 kts 320°
2026-04-26 22:44 32.68682 73.33889 19612 ft 334 kts 320°
2026-04-26 22:45 32.70523 73.32213 19204 ft 333 kts 319°
2026-04-26 22:45 32.72364 73.30535 18801 ft 333 kts 319°
2026-04-26 22:45 32.74194 73.28864 18391 ft 333 kts 320°
2026-04-26 22:45 32.76132 73.27344 17961 ft 336 kts 330°
2026-04-26 22:46 32.78334 73.26377 17508 ft 340 kts 344°
2026-04-26 22:46 32.80675 73.25934 17085 ft 340 kts 349°
2026-04-26 22:46 32.83017 73.25555 16657 ft 340 kts 349°
2026-04-26 22:46 32.85356 73.25172 16241 ft 339 kts 348°
2026-04-26 22:47 32.87686 73.24786 15830 ft 338 kts 348°
2026-04-26 22:47 32.90011 73.24400 15418 ft 337 kts 348°
2026-04-26 22:47 32.92326 73.24014 15009 ft 337 kts 348°
2026-04-26 22:47 32.94648 73.23628 14600 ft 336 kts 348°
2026-04-26 22:48 32.96956 73.23246 14201 ft 335 kts 348°
2026-04-26 22:48 32.99266 73.22865 13794 ft 333 kts 348°
2026-04-26 22:48 33.01555 73.22486 13371 ft 332 kts 348°
2026-04-26 22:48 33.03841 73.22109 12948 ft 330 kts 348°
2026-04-26 22:49 33.06108 73.21733 12537 ft 328 kts 348°
2026-04-26 22:49 33.08330 73.21362 12135 ft 326 kts 349°
2026-04-26 22:49 33.10564 73.20986 11803 ft 322 kts 349°
2026-04-26 22:49 33.12754 73.20620 11569 ft 314 kts 349°
2026-04-26 22:50 33.14909 73.20259 11209 ft 312 kts 349°
2026-04-26 22:50 33.17027 73.19906 11078 ft 302 kts 349°
2026-04-26 22:50 33.19093 73.19562 10737 ft 299 kts 349°
2026-04-26 22:50 33.21151 73.19216 10397 ft 297 kts 349°
2026-04-26 22:51 33.23193 73.18872 10051 ft 296 kts 349°
2026-04-26 22:51 33.25226 73.18529 9711 ft 294 kts 349°
2026-04-26 22:51 33.27253 73.18188 9341 ft 292 kts 349°
2026-04-26 22:51 33.29263 73.17851 8964 ft 289 kts 349°
2026-04-26 22:52 33.31167 73.17533 8794 ft 269 kts 349°
2026-04-26 22:52 33.32959 73.17234 8548 ft 255 kts 350°
2026-04-26 22:52 33.34696 73.16942 8069 ft 250 kts 350°
2026-04-26 22:52 33.36415 73.16652 7562 ft 249 kts 350°
2026-04-26 22:53 33.38125 73.16362 7246 ft 247 kts 350°
2026-04-26 22:53 33.39819 73.16075 7004 ft 241 kts 351°
2026-04-26 22:53 33.41445 73.15804 6881 ft 230 kts 351°
2026-04-26 22:53 33.43004 73.15564 6764 ft 221 kts 351°
2026-04-26 22:54 33.44492 73.15342 6643 ft 212 kts 351°
2026-04-26 22:54 33.45929 73.15085 6450 ft 206 kts 341°
2026-04-26 22:54 33.47115 73.14151 5968 ft 212 kts 310°
2026-04-26 22:54 33.48054 73.12819 5665 ft 204 kts 310°
2026-04-26 22:55 33.48955 73.11557 5493 ft 196 kts 310°
2026-04-26 22:55 33.49841 73.10323 5403 ft 195 kts 311°
2026-04-26 22:55 33.50633 73.09006 5309 ft 195 kts 294°
2026-04-26 22:55 33.51035 73.07466 5305 ft 194 kts 284°
2026-04-26 22:56 33.51317 73.05879 5071 ft 194 kts 282°
2026-04-26 22:56 33.51573 73.04294 4839 ft 192 kts 282°
2026-04-26 22:56 33.51825 73.02717 4604 ft 191 kts 282°
2026-04-26 22:56 33.52070 73.01170 4365 ft 189 kts 282°
2026-04-26 22:57 33.52312 72.99642 4122 ft 184 kts 282°
2026-04-26 22:57 33.52545 72.98170 3891 ft 175 kts 282°
2026-04-26 22:57 33.52691 72.97242 3749 ft 167 kts 283°
2026-04-26 22:57 33.52898 72.95932 3565 ft 153 kts 283°
2026-04-26 22:58 33.53157 72.94300 3295 ft 148 kts 283°
2026-04-26 22:58 33.53287 72.93497 3168 ft 148 kts 283°
2026-04-26 22:58 33.53477 72.92288 2983 ft 147 kts 283°
2026-04-26 22:58 33.53648 72.91079 2803 ft 146 kts 282°
2026-04-26 22:59 33.53844 72.89881 2620 ft 146 kts 287°
2026-04-26 22:59 33.54055 72.88691 2464 ft 146 kts 281°
2026-04-26 22:59 33.54226 72.87491 2299 ft 146 kts 280°
2026-04-26 22:59 33.54417 72.86300 2136 ft 146 kts 280°
2026-04-26 23:00 33.54603 72.85110 1895 ft 143 kts 278°
2026-04-26 23:00 33.54783 72.83955 1776 ft 133 kts 278°
2026-04-26 23:00 33.54925 72.83049 1765 ft 98 kts 282°
2026-04-26 23:00 33.55008 72.82523 1759 ft 69 kts 280°
2026-04-26 23:01 33.55081 72.82055 1761 ft 49 kts 280°
2026-04-26 23:01 33.55136 72.81711 1758 ft 31 kts 281°
2026-04-26 23:01 33.55190 72.81601 1754 ft 11 kts 354°
2026-04-26 23:01 33.55256 72.81614 1766 ft 9 kts 12°
2026-04-26 23:02 33.55312 72.81629 1771 ft 6 kts 19°
2026-04-26 23:02 33.55330 72.81703 1767 ft 17 kts 100°
2026-04-26 23:02 33.55304 72.81869 1768 ft 21 kts 99°
2026-04-26 23:02 33.55279 72.82041 1770 ft 21 kts 99°
2026-04-26 23:03 33.55252 72.82211 1771 ft 21 kts 101°
2026-04-26 23:03 33.55227 72.82373 1768 ft 18 kts 100°
2026-04-26 23:03 33.55204 72.82518 1768 ft 15 kts 101°
2026-04-26 23:03 33.55227 72.82592 1770 ft 9 kts 32°
2026-04-26 23:04 33.55278 72.82605 1771 ft 8 kts 10°
2026-04-26 23:04 33.55364 72.82624 1770 ft 14 kts 11°
2026-04-26 23:04 33.55431 72.82684 1770 ft 12 kts 56°
2026-04-26 23:04 33.55477 72.82763 1770 ft 14 kts 55°
2026-04-26 23:05 33.55539 72.82871 1770 ft 16 kts 55°
2026-04-26 23:05 33.55597 72.82971 1770 ft 14 kts 55°
2026-04-26 23:05 33.55647 72.83056 1770 ft 11 kts 47°
2026-04-26 23:05 33.55708 72.83084 1771 ft 8 kts 11°
2026-04-26 23:06 33.55731 72.83118 1772 ft 5 kts 94°
2026-04-26 23:06 33.55726 72.83153 1771 ft 4 kts 100°
2026-04-26 23:06 33.55722 72.83177 1770 ft 2 kts 99°
2026-04-26 23:06 33.55720 72.83191 1770 ft 1 kts 99°
2026-04-26 23:07 33.55720 72.83193 1770 ft 0 kts 99°